This demonstration page uses our WeatherBlox Daily Observations layout. Learn more.

Left ArrowRight Arrow

Hourly Observations for March 3, 2021

Temp ( °F °C ) Dew Point ( °F °C ) Humidity (%) Winds ( mph kmh ) Pressure ( in mb ) Visibility ( mi km ) Precip ( " mm )
12:53 am 00:53 Clear 31 -0.6 26 -3.3 82 82 W 6 9 29.82 1010 10 16 N/A
1:53 am 01:53 Clear 31 -0.6 26 -3.3 82 82 WSW 7 11 29.82 1010 10 16 N/A
2:53 am 02:53 Clear 32 undefined 25 -3.9 75 75 SW 5 7 29.83 1010 10 16 N/A
3:53 am 03:53 Clear 31 -0.6 25 -3.9 79 79 WNW 3 6 29.83 1010 10 16 N/A
4:53 am 04:53 Clear 32 undefined 26 -3.3 79 79 SW 10 17 29.85 1011 10 16 N/A
5:53 am 05:53 Clear 34 1.1 27 -2.8 76 76 SW 16 26 29.86 1011 10 16 N/A
6:53 am 06:53 Clear 34 1.1 26 -3.3 73 73 VRB 5 7 29.89 1012 10 16 N/A
7:53 am 07:53 Sunny 33 0.6 27 -2.8 78 78 W 7 11 29.90 1013 10 16 N/A
8:53 am 08:53 Sunny 38 3.3 29 -1.7 70 70 SW 12 19 29.91 1013 10 16 N/A
9:53 am 09:53 Sunny 45 7.2 30 -1.1 56 56 SW 14 22 29.90 1013 10 16 N/A
10:53 am 10:53 Sunny 48 8.9 29 -1.7 48 48 SW 15 24 29.90 1013 10 16 N/A
11:53 am 11:53 Sunny 49 9.4 31 -0.6 50 50 SW 14 22 29.91 1013 10 16 N/A
12:53 pm 12:53 Sunny 51 10.6 32 undefined 48 48 SW 14 22 29.92 1013 10 16 N/A
1:53 pm 13:53 Sunny 52 11.1 32 undefined 47 47 SSW 12 19 29.91 1013 10 16 N/A
2:53 pm 14:53 Sunny 54 12.2 32 undefined 43 43 SSW 10 17 29.91 1013 10 16 N/A
3:53 pm 15:53 Sunny 54 12.2 29 -1.7 38 38 SSW 8 13 29.91 1013 10 16 N/A
4:53 pm 16:53 Sunny 54 12.2 27 -2.8 35 35 S 3 6 29.91 1013 10 16 N/A
5:53 pm 17:53 Sunny 48 8.9 27 -2.8 44 44 SE 6 9 29.92 1013 10 16 N/A
6:53 pm 18:53 Clear 39 3.9 27 -2.8 62 62 SE 5 7 29.95 1014 10 16 N/A
7:53 pm 19:53 Clear 37 2.8 26 -3.3 65 65 N N/A 29.97 1015 10 16 N/A
8:53 pm 20:53 Clear 35 1.7 25 -3.9 67 67 ENE 6 9 29.96 1015 10 16 N/A
9:53 pm 21:53 Clear 42 5.6 26 -3.3 53 53 VRB 3 6 29.95 1014 10 16 N/A
10:53 pm 22:53 Clear 36 2.2 25 -3.9 64 64 NE 8 13 29.96 1015 10 16 N/A
11:53 pm 23:53 Clear 34 1.1 25 -3.9 70 70 NE 5 7 29.97 1015 10 16 N/A

Powered by AerisWeather